Aktuell
News
Messwerte
Diagramme
Archiv
Wettervorhersage
Regen
Wettergefahren

Astro & Geo
Health
Pegel
Gästebuch
Kontakt
Impressum
Datenschutz
App

Stark bewölkt bei 2.3 °C – Luftdruck: 1022.0 hPa – Wind: S 0.0 km/h
Messwerte von 16:08 Uhr; Warnsymbol: Datenbasis DWD; Wetterzustand powered by
Übersicht
Heute
Gestern
Vor 1 Jahr
Info
  Messwerte der Wetterstation Köln-Nippes (Stellwerk)
30.11.2020, 16:08 Uhr Aktuell   Heute Gestern Monat Jahr
Temperatur 2.3 °C Min
 Max
 Ø
-2.7 °C
06:17 Uhr2.5 °C
15:33 Uhr-1.1 °C
-1.1 °C
22:48 Uhr3.6 °C
13:59 Uhr1.7 °C
-2.7 °C
30.11. 06:17 Uhr21.0 °C
02.11. 14:59 Uhr9.1 °C
-3.4 °C
22.01. 06:05 Uhr38.2 °C
08.08. 17:14 Uhr13.7 °C
Gefühlte Temperatur 2.3 °C Min
 Max
 
-6.1 °C
05:32 Uhr2.5 °C
15:33 Uhr
-5.4 °C
22:52 Uhr3.6 °C
13:59 Uhr
-6.1 °C
30.11. 05:32 Uhr21.0 °C
02.11. 14:59 Uhr
-6.9 °C
22.01. 06:40 Uhr38.2 °C
08.08. 17:14 Uhr
Luftfeuchte 80 % Min
 Max
 Ø
79.0 %
13:46 Uhr92.0 %
08:31 Uhr86.8 %
69.0 %
14:01 Uhr89.0 %
00:52 Uhr80.1 %
50.0 %
06.11. 14:37 Uhr97.0 %
05.11. 09:32 Uhr81.5 %
9.0 %
25.03. 15:33 Uhr97.0 %
27.09. 04:02 Uhr67.4 %
Taupunkt -0.9 °C Min
 Max
 Ø
-4.4 °C
06:17 Uhr-0.3 °C
15:33 Uhr-3.1 °C
-3.6 °C
23:34 Uhr1.3 °C
03:00 Uhr-1.5 °C
-4.4 °C
30.11. 06:17 Uhr15.4 °C
02.11. 05:40 Uhr5.9 °C
-17.5 °C
25.03. 15:49 Uhr21.7 °C
13.08. 17:30 Uhr6.9 °C
Luftdruck 1022.0 hPa Min
 Max
 Ø
1021.9 hPa
15:58 Uhr1027.3 hPa
01:09 Uhr1026.1 hPa
1023.6 hPa
00:00 Uhr1027.5 hPa
21:40 Uhr1025.7 hPa
1001.1 hPa
15.11. 17:53 Uhr1040.2 hPa
05.11. 11:17 Uhr1022.5 hPa
984.2 hPa
06.03. 03:06 Uhr1048.7 hPa
20.01. 10:26 Uhr1016.1 hPa
Wind 4.7 km/h
1 Bft
Max
  Ø
6.5 km/h
(2 Bft)00:22 Uhr3.0 km/h
9.7 km/h
(2 Bft)07:25 Uhr5.0 km/h
17.6 km/h
(3 Bft)02.11. 15:25 Uhr5.9 km/h
35.3 km/h
(5 Bft)09.02. 23:51 Uhr6.6 km/h
Windböen 0.0 km/h
0 Bft
Max 17.6 km/h
(3 Bft)15:32 Uhr
20.9 km/h
(4 Bft)07:32 Uhr
50.0 km/h
(7 Bft)15.11. 17:16 Uhr
74.2 km/h
(8 Bft)09.02. 23:51 Uhr
Windrichtung S
175°
dom SO OSO SO SO
Niederschlag 0.00 mm
letzte 60 min
Sum 0.00 mm 0.00 mm 15.66 mm 513.71 mm
Regenrate 0.0 mm/h Max 0.0 mm/h
00:00 Uhr
0.0 mm/h
00:00 Uhr
21.8 mm/h
15.11. 19:39 Uhr
142.2 mm/h
29.06. 06:46 Uhr
UV-Index 0.0
Max 0.9
12:04 Uhr
0.9
12:56 Uhr
1.7
02.11. 11:46 Uhr
8.1
09.07. 13:04 Uhr
Warnungen Stadt Köln
  KEINE WARNUNG FÜR KÖLN AKTIV
Vorabinfo Frost Glätte Schneefall Nebel
Wind Gewitter Regen Hitze UV
Ozon Pegel Köln Waldbrandgefahr
Datenbasis: DWD; LANUV, Land NRW, dl-de/by-2-0; Pegelonline 30.11.2020, 16:05 Uhr
 
Wetter- & Regenvorhersage
Leichter Regen
Regen
90 %
Wind
11 km/h SO
5 °C 1 °C
Kein Regen innerhalb von 60 Minuten
0 0 0 0 0 0 0 0 0 0 0 0 0 0 0 0 0 0 0 0 0 0 0 0 0
16:15 16:35 16:55 17:15 17:35 17:55  
0-10 Min.
kein Regen
10-30 Min.
kein Regen
30-60 Min.
kein Regen
60-120 Min.
kein Regen
Wettervorhersage: Powered by wetter.com
Regenvorhersage: Niederschlagsradar.de
Nächste Stunden
30.11.2020, 16:00 Uhr
Astronomische Daten
     
                     
00:00 02:00 04:00 06:00 08:00 10:00 12:00 14:00 16:00 18:00 20:00 22:00 00:00
Sonnenaufgang: 08:12 Uhr Sonnenuntergang: 16:30 Uhr
Tageslänge: 08 Stunden 17 Minuten
     
         
00:00 02:00 04:00 06:00 08:00 10:00 12:00 14:00 16:00 18:00 20:00 22:00 00:00
Monduntergang: 08:05 Uhr Mondaufgang: 16:38 Uhr
Mondphase: Vollmond (99.9 %)
Venus
▲ 05:31 Uhr    ▼ 15:23 Uhr
Mars
▼ 03:33 Uhr    ▲ 14:18 Uhr
Jupiter
▲ 11:36 Uhr    ▼ 19:53 Uhr
Saturn
▲ 11:42 Uhr    ▼ 20:06 Uhr
ISS
Nächster Überflug: 30.11. 16:35 Uhr; WSW→SSO→O; Max. Höhe 69.1°
Datenbasis Planeten: In-The-Sky.org; ISS: N2YO.com
Pollenflug
Hasel Erle Esche Birke
Gräser Roggen Beifuß Ambrosia
Datenbasis: DWD Heute Nachmittag
Biowetter
Allgemeinbefinden Asthma
Herz und Kreislauf (niedriger Blutdruck) Herz und Kreislauf (Bluthochdruck)
Rheuma (entzündlich) Rheuma (degenerativ)
Thermisch: schwache Kältebelastung
UV-Index-Vorhersage: 1
Datenbasis: DWD Heute Nachmittag
Pegel Köln (Rhein)
146 cm Tendenz: (-1 cm)
Datenbasis: Pegelonline 30.11.2020, 16:00 Uhr
Luftqualität
  CHOR TURI CLEV RODE
Ozon (O3) <4 μg/m3 –– –– –– μg/m3
Stickstoffdioxid (NO2) 44 μg/m3 37 μg/m3 44 μg/m3 –– μg/m3
Feinstaub (PM10) 31 μg/m3 28 μg/m3 31 μg/m3 –– μg/m3
Datenbasis: LANUV, Land NRW, dl-de/by-2-0 30.11.2020, 15:00 Uhr
Stationen Chorweiler (CHOR), Turiner Str. (TURI), Clevischer Ring (CLEV), Rodenkirchen (RODE)
Eigene Feinstaubmessung
  Aktuell 24 h
Feinstaub (PM10) 40 μg/m3 51 μg/m3
Feinstaub (PM2.5) 23 μg/m3 26 μg/m3
Wetterstation Köln-Nippes (Stellwerk) 30.11.2020, 16:06 Uhr
Radioaktivität
0.088 μSv/h kosmisch: 0.041 μSv/h
terrestrisch: 0.047 μSv/h
Datenbasis: BfS, ODL-Info, Station Weidenpesch 30.11.2020, 10:00 Uhr

Wetter für Köln wünscht dir einen angenehmen Tag.

 

Bleibe beim Wetter up to date
STARKE GLÄTTE MÖGLICH! ERSTER FROST
Ab dem frühen Abend kommt Regen auf. Dieser kann stellenweise auf gefrorenen Boden fallen, wodurch es zu Glatteisbildung kommen könnte. Das Super-HD-Wettermodell deutet dies für einige Bereiche des Kölner Stadtgebiets an, wie auf der angehängten Karte für heute, 20 Uhr anhand der rot eingefärbten Ausschnitte beispielhaft zu erkennen (Karte: Kachelmannwetter). Seid vorsichtig!
Zum ersten Mal in diesem Winterhalbjahr wurde soeben an der Wetterstation Köln-Nippes (Stellwerk) die Nullgradmarke unterschritten.
30.11.2020, 10:01 Uhr 29.11.2020, 20:25 Uhr
Zum Newsbereich

Lade die kostenlose App!
NEU: www.nippes-wetter.app – die Web App

Nippes-Wetter, Wetter für Köln im App Store Nippes-Wetter, Wetter für Köln im Google Play Store